Regional Weather Roundup
Issued by NWS

Home | Current Version | Previous Version | Graphics & Text | Print | Product List | Glossary On
Versions: 1 2 3 4 5 6 7 8 9 10 11 12 13 14 15 16 17 18 19 20 21 22 23 24 25 26 27 28 29 30 31 32 33 34 35 36 37 38 39 40 41 42 43 44 45 46 47 48 49 50
000
ASUS45 KBOU 080107
RWRCO

WEATHER ROUNDUP FOR COLORADO
NATIONAL WEATHER SERVICE DENVER/BOULDER CO
600 PM MST WED DEC 07 2016

NOTE: "FAIR" INDICATES FEW OR NO CLOUDS BELOW 12000 FEET WITH NO
SIGNIFICANT WEATHER AND/OR OBSTRUCTIONS TO VISIBILITY.

COZ001>005-013-030-031-080200-
...NORTHWEST COLORADO...

CITY           SKY/WX    TMP DP  RH WIND       PRES   REMARKS
CRAIG          FAIR       2  -5  72 CALM      30.25R
HAYDEN         FAIR       3  -8  60 S3        30.22R
MEEKER         FAIR       3  -2  79 CALM      30.22R
MOUNT WERNER   NOT AVBL
STEAMBOAT SPGS FAIR       7  -1  69 CALM      30.20R
WALDEN           N/A     -2  -8  78 NE5       30.14R WCI -12
$$

COZ006>008-011-080200-
...WEST CENTRAL VALLEYS...

CITY           SKY/WX    TMP DP  RH WIND       PRES   REMARKS
GRAND JUNCTION FAIR      22  11  62 E6        30.22R WCI  14
MONTROSE       FAIR      23   6  48 CALM      30.22R
EAGLE          CLOUDY    16   5  62 W6        30.21R WCI   7
RIFLE          FAIR      22   6  50 VRB5      30.24R WCI  16
DELTA          NOT AVBL
NUCLA          FAIR      23  -2  33 NW7       30.21R WCI  15
$$

COZ017>023-064>068-080200-
...SOUTHWEST COLORADO...

CITY           SKY/WX    TMP DP  RH WIND       PRES   REMARKS
DURANGO        FAIR      24  -2  32 SW12      30.10R WCI  13
CORTEZ         FAIR      26   3  37 NW7       30.16R WCI  18
PAGOSA SPRINGS FAIR      24  -1  32 S7        30.09R WCI  16
TELLURIDE      FAIR      11  -1  59 E9        30.09R WCI  -2
WOLF CREEK PAS FAIR       3  -6  66 SW18G30   30.02R WCI -17
$$

COZ009-010-012-014-032>034-037-058>063-080200-
...CENTRAL COLORADO...

CITY           SKY/WX    TMP DP  RH WIND       PRES   REMARKS
ASPEN          CLOUDY    12   6  77 S5        30.12R WCI   4
BUENA VISTA    FAIR      11  -2  56 W10       30.10R WCI  -2
COPPER MTN     CLOUDY     0  -8  71 MISG      29.91R
BERTHOUD PASS  LGT SNOW -13 -24  58 MISG      29.85R
COTTONWOOD PAS FAIR      10  -8  44 W5        30.01R WCI   2
GUNNISON       CLOUDY    12  -2  53 CALM      30.13R
KREMMLING      FAIR      14   1  57 NW7       30.19R WCI   4
LEADVILLE      CLOUDY     2  -5  72 NW7       30.00R HAZE    WCI -11
MONARCH PASS   MOCLDY    -2  -8  78 W24       30.03R WCI -27
SALIDA         FAIR      19  -2  39 W6        30.19R WCI  11
SUNLIGHT       LGT SNOW N/A N/A N/A W6        30.06R
WILKERSON PASS FAIR       0 -11  60 W7        29.97R WCI -13
$$

COZ069>075-080200-
...SAN LUIS VALLEY/SANGRE DE CRISTO MOUNTAINS...

CITY           SKY/WX    TMP DP  RH WIND       PRES   REMARKS
ALAMOSA        FAIR      18   1  47 N9        30.07R WCI   7
LA VETA PASS   LGT SNOW   1  -4  78 SW5       30.00R VSB 1   WCI  -8
SAGUACHE       FAIR      18  -2  41 N9G17     30.09R WCI   6
$$

COZ035-036-038>040-080200-
...NORTHERN COLORADO FRONT RANGE...

CITY           SKY/WX    TMP DP  RH WIND       PRES   REMARKS
DENVER INTL AP MOCLDY     4   0  83 N6        30.31R WCI  -7
DMNS CITY PARK   N/A      8   2  78 N3G12     30.33R
AURORA         CLOUDY     3   0  86 NE5       30.30R WCI  -6
FRONT RANGE AP MOCLDY     7   1  78 CALM      30.31R
ERIE MUNI ARPT FAIR       2  -1  86 CALM      30.34R
BOULDER MUN AP CLOUDY     9   5  85 NE3       30.33R
CENTENNIAL     CLOUDY     8   2  76 NE6       30.28R WCI  -2
BROOMFIELD     MOCLDY     7   1  78 NE5       30.30R WCI  -2
FORT COLLINS   CLOUDY     7   1  78 S3        30.34R
LONGMONT       CLOUDY     5   0  80 CALM      30.36R
$$

COZ041-046-047-076>085-087-088-080200-
...PIKES PEAK/PALMER DIVIDE AND SOUTHERN FOOTHILLS...

CITY           SKY/WX    TMP DP  RH WIND       PRES   REMARKS
COLO. SPRINGS  LGT SNOW  11   7  84 E3        30.23R FOG
A. F. ACADEMY  FAIR       4  -2  77 NW6       30.20R WCI  -7
SCHRIEVER AFB  NOT AVBL
ELLICOTT       LGT RAIN N/A N/A N/A E5          N/A
FALCON         CLOUDY     6   1  80 CALM      30.20R
FORT CARSON    LGT SNOW  14   9  79 E5        30.24R WCI   6
LIMON          CLOUDY     7   3  84 NW15      30.31R WCI -10
MONUMENT HILL  CLOUDY     3   1  92 N5        30.20R WCI  -6
TRINIDAD       CLOUDY    16   8  71 NE7       30.25R WCI   6
$$

COZ042>045-048>051-090-091-080200-
...NORTHEAST COLORADO...

CITY           SKY/WX    TMP DP  RH WIND       PRES   REMARKS
GREELEY ARPT   FAIR       5  -3  69 CALM      30.38R
AKRON          FAIR       2  -2  83 NW12      30.34R WCI -15
BURLINGTON     FAIR       6   0  76 NW8       30.38R WCI  -7
WRAY           NOT AVBL
STERLING       FAIR       5   0  78 NW10      30.38R WCI -10
HOLYOKE        FAIR      12   3  67 NW8       30.40R WCI   1
FORT MORGAN    FAIR       1  -6  75 W8        30.38R WCI -14
$$

COZ086-089-092>099-080200-
...SOUTHEAST COLORADO...

CITY           SKY/WX    TMP DP  RH WIND       PRES   REMARKS
PUEBLO         FLURRIES  19  14  81 SE10      30.32R WCI   7
LA JUNTA       CLOUDY    18  12  77 E6        30.37R WCI  10
LAMAR          FAIR      15  10  80 NE6       30.38R WCI   6
SPRINGFIELD      N/A     15  11  83 N9        30.33R WCI   3
$$



USA.gov is the U.S. government's official web portal to all federal, state and local government web resources and services.